When you browse on this site, cookies collect data to enhance your experience and personalize the content and advertising you see.
Visit our Privacy Policy to learn more. By continuing to use the site, you agree to this use of cookies and data.
  • In Czech Republic
  • List of Countries
  • For 7 days
  • Water Temperature
  • Satellite Maps
  • Weather Map
  • Weather Widgets
  • user-avatar
    Login

    Hourly Weather Herāt

    Today, 25 May, Saturday

    Time Temperature Precipitation Wind Pressure Humidity
    00:00 +24°C° 0 mm 2 mps 680 mmHg 16%
    01:00 +22°C° 0 mm 3 mps 680 mmHg 16%
    02:00 +22°C° 0 mm 3 mps 680 mmHg 17%
    03:00 +22°C° 0 mm 3 mps 680 mmHg 18%
    04:00 +21°C° 0 mm 3 mps 680 mmHg 18%
    05:00 +24°C° 0 mm 3 mps 680 mmHg 19%
    06:00 +25°C° 0 mm 3 mps 681 mmHg 20%
    07:00 +26°C° 0 mm 2 mps 681 mmHg 20%
    08:00 +27°C° 0 mm 2 mps 681 mmHg 20%
    09:00 +28°C° 0 mm 2 mps 682 mmHg 20%
    10:00 +29°C° 0 mm 1 mps 682 mmHg 20%
    11:00 +30°C° 0 mm 3 mps 682 mmHg 19%
    12:00 +32°C° 0 mm 4 mps 682 mmHg 17%
    13:00 +33°C° 0 mm 5 mps 682 mmHg 15%
    14:00 +33°C° 0 mm 6 mps 682 mmHg 16%
    15:00 +33°C° 0 mm 6 mps 682 mmHg 16%
    16:00 +32°C° 0 mm 7 mps 681 mmHg 16%
    17:00 +30°C° 0 mm 7 mps 681 mmHg 19%
    18:00 +29°C° 0 mm 7 mps 681 mmHg 22%
    19:00 +28°C° 0 mm 6 mps 681 mmHg 25%
    20:00 +27°C° 0 mm 6 mps 681 mmHg 27%
    21:00 +26°C° 0 mm 5 mps 681 mmHg 30%
    22:00 +25°C° 0 mm 4 mps 681 mmHg 32%
    23:00 +25°C° 0 mm 4 mps 681 mmHg 33%

    Tomorrow, 26 May, Sunday

    Time Temperature Precipitation Wind Pressure Humidity
    00:00 +24°C° 0 mm 3 mps 681 mmHg 34%
    01:00 +22°C° 0 mm 3 mps 681 mmHg 36%
    02:00 +22°C° 0 mm 3 mps 680 mmHg 35%
    03:00 +21°C° 0 mm 3 mps 680 mmHg 35%
    04:00 +21°C° 0 mm 3 mps 680 mmHg 34%
    05:00 +22°C° 0 mm 3 mps 681 mmHg 31%
    06:00 +24°C° 0 mm 3 mps 681 mmHg 28%
    07:00 +25°C° 0 mm 4 mps 681 mmHg 24%
    08:00 +27°C° 0 mm 4 mps 681 mmHg 21%
    09:00 +28°C° 0 mm 5 mps 682 mmHg 18%
    10:00 +29°C° 0 mm 6 mps 682 mmHg 15%
    11:00 +30°C° 0 mm 6 mps 681 mmHg 14%
    12:00 +32°C° 0 mm 6 mps 681 mmHg 12%
    13:00 +33°C° 0 mm 6 mps 681 mmHg 11%
    14:00 +33°C° 0 mm 7 mps 681 mmHg 11%
    15:00 +33°C° 0 mm 7 mps 680 mmHg 11%
    16:00 +33°C° 0 mm 7 mps 680 mmHg 11%
    17:00 +32°C° 0 mm 7 mps 680 mmHg 13%
    18:00 +29°C° 0 mm 6 mps 680 mmHg 14%
    19:00 +28°C° 0 mm 6 mps 680 mmHg 15%
    20:00 +27°C° 0 mm 5 mps 680 mmHg 17%
    21:00 +26°C° 0 mm 5 mps 680 mmHg 19%
    22:00 +25°C° 0 mm 4 mps 680 mmHg 21%
    23:00 +25°C° 0 mm 4 mps 680 mmHg 22%

    Day after tomorrow, 27 May, Monday

    Time Temperature Precipitation Wind Pressure Humidity
    00:00 +24°C° 0 mm 3 mps 679 mmHg 23%
    01:00 +22°C° 0 mm 3 mps 679 mmHg 24%
    02:00 +22°C° 0 mm 3 mps 679 mmHg 24%
    03:00 +22°C° 0 mm 3 mps 679 mmHg 24%
    04:00 +21°C° 0 mm 3 mps 679 mmHg 24%
    05:00 +24°C° 0 mm 3 mps 679 mmHg 22%
    06:00 +25°C° 0 mm 3 mps 679 mmHg 20%
    07:00 +26°C° 0 mm 3 mps 680 mmHg 18%
    08:00 +28°C° 0 mm 4 mps 680 mmHg 15%
    09:00 +30°C° 0 mm 4 mps 681 mmHg 12%
    10:00 +33°C° 0 mm 4 mps 681 mmHg 10%
    11:00 +34°C° 0 mm 5 mps 681 mmHg 9%
    12:00 +34°C° 0 mm 5 mps 681 mmHg 9%
    13:00 +35°C° 0 mm 6 mps 680 mmHg 9%
    14:00 +35°C° 0 mm 6 mps 680 mmHg 9%
    15:00 +35°C° 0 mm 7 mps 680 mmHg 9%
    16:00 +36°C° 0 mm 7 mps 679 mmHg 9%
    17:00 +34°C° 0 mm 7 mps 679 mmHg 10%
    18:00 +33°C° 0 mm 7 mps 679 mmHg 11%
    19:00 +30°C° 0 mm 7 mps 679 mmHg 12%
    20:00 +29°C° 0 mm 6 mps 679 mmHg 13%
    21:00 +28°C° 0 mm 5 mps 680 mmHg 14%
    22:00 +27°C° 0 mm 5 mps 680 mmHg 15%
    23:00 +27°C° 0 mm 4 mps 679 mmHg 15%

    28 May, Tuesday

    Time Temperature Precipitation Wind Pressure Humidity
    00:00 +26°C° 0 mm 4 mps 679 mmHg 16%
    01:00 +25°C° 0 mm 4 mps 679 mmHg 16%
    02:00 +25°C° 0 mm 4 mps 678 mmHg 17%
    03:00 +23°C° 0 mm 4 mps 678 mmHg 17%
    04:00 +23°C° 0 mm 4 mps 678 mmHg 17%
    05:00 +25°C° 0 mm 5 mps 679 mmHg 16%
    06:00 +26°C° 0 mm 5 mps 679 mmHg 15%
    07:00 +28°C° 0 mm 5 mps 680 mmHg 13%
    08:00 +30°C° 0 mm 6 mps 680 mmHg 12%
    09:00 +32°C° 0 mm 7 mps 681 mmHg 11%
    10:00 +34°C° 0 mm 8 mps 681 mmHg 9%
    11:00 +35°C° 0 mm 9 mps 681 mmHg 9%
    12:00 +37°C° 0 mm 9 mps 680 mmHg 9%
    13:00 +37°C° 0 mm 10 mps 680 mmHg 9%
    14:00 +37°C° 0 mm 10 mps 680 mmHg 9%
    15:00 +37°C° 0 mm 11 mps 680 mmHg 10%
    16:00 +37°C° 0 mm 11 mps 679 mmHg 10%
    17:00 +34°C° 0 mm 11 mps 680 mmHg 12%
    18:00 +33°C° 0 mm 11 mps 680 mmHg 13%
    19:00 +32°C° 0 mm 11 mps 680 mmHg 15%
    20:00 +31°C° 0 mm 10 mps 680 mmHg 16%
    21:00 +29°C° 0 mm 10 mps 681 mmHg 16%
    22:00 +28°C° 0 mm 9 mps 681 mmHg 16%
    23:00 +27°C° 0 mm 9 mps 680 mmHg 24%

    29 May, Wednesday

    Time Temperature Precipitation Wind Pressure Humidity
    00:00 +26°C° 0 mm 9 mps 680 mmHg 31%
    01:00 +23°C° 0 mm 9 mps 680 mmHg 38%
    02:00 +23°C° 0 mm 9 mps 680 mmHg 43%
    03:00 +22°C° 0 mm 8 mps 679 mmHg 48%
    04:00 +21°C° 0 mm 8 mps 679 mmHg 52%
    05:00 +22°C° 0 mm 8 mps 680 mmHg 49%
    06:00 +23°C° 0 mm 9 mps 680 mmHg 46%
    07:00 +24°C° 0 mm 9 mps 681 mmHg 42%
    08:00 +26°C° 0 mm 9 mps 681 mmHg 36%
    09:00 +28°C° 0 mm 9 mps 681 mmHg 30%
    10:00 +31°C° 0 mm 9 mps 681 mmHg 24%
    11:00 +32°C° 0 mm 9 mps 681 mmHg 22%
    12:00 +33°C° 0 mm 10 mps 680 mmHg 20%
    13:00 +34°C° 0 mm 10 mps 680 mmHg 18%
    14:00 +34°C° 0 mm 11 mps 680 mmHg 18%
    15:00 +34°C° 0 mm 11 mps 679 mmHg 18%
    16:00 +34°C° 0 mm 11 mps 679 mmHg 18%
    17:00 +33°C° 0 mm 11 mps 679 mmHg 18%
    18:00 +32°C° 0 mm 10 mps 679 mmHg 19%
    19:00 +31°C° 0 mm 10 mps 679 mmHg 19%
    20:00 +29°C° 0 mm 10 mps 679 mmHg 21%
    21:00 +28°C° 0 mm 10 mps 679 mmHg 23%
    22:00 +28°C° 0 mm 10 mps 679 mmHg 25%
    23:00 +27°C° 0 mm 10 mps 679 mmHg 27%

    30 May, Thursday

    Time Temperature Precipitation Wind Pressure Humidity
    00:00 +26°C° 0 mm 11 mps 679 mmHg 29%
    01:00 +26°C° 0 mm 11 mps 679 mmHg 31%
    02:00 +24°C° 0 mm 10 mps 678 mmHg 34%
    03:00 +23°C° 0 mm 10 mps 678 mmHg 37%
    04:00 +23°C° 0 mm 9 mps 678 mmHg 40%
    05:00 +24°C° 0 mm 9 mps 679 mmHg 38%
    06:00 +26°C° 0 mm 8 mps 679 mmHg 35%
    07:00 +26°C° 0 mm 8 mps 679 mmHg 33%
    08:00 +28°C° 0 mm 8 mps 680 mmHg 29%
    09:00 +29°C° 0 mm 8 mps 680 mmHg 25%
    10:00 +32°C° 0 mm 8 mps 680 mmHg 22%
    11:00 +33°C° 0 mm 8 mps 679 mmHg 20%
    12:00 +34°C° 0 mm 9 mps 679 mmHg 19%
    13:00 +35°C° 0 mm 9 mps 679 mmHg 17%
    14:00 +35°C° 0 mm 9 mps 678 mmHg 17%
    15:00 +36°C° 0 mm 10 mps 678 mmHg 17%
    16:00 +34°C° 0 mm 10 mps 678 mmHg 17%
    17:00 +33°C° 0 mm 10 mps 678 mmHg 19%
    18:00 +32°C° 0 mm 9 mps 678 mmHg 20%
    19:00 +31°C° 0 mm 9 mps 678 mmHg 22%
    20:00 +29°C° 0 mm 9 mps 678 mmHg 24%
    21:00 +28°C° 0 mm 10 mps 678 mmHg 27%
    22:00 +27°C° 0 mm 10 mps 679 mmHg 29%
    23:00 +27°C° 0 mm 9 mps 678 mmHg 31%
    Show more